DLH9LX ENGM-EDDF

Flight info

Callsign DLH9LX
Flight time 1h 37m
Altitude 37000
Route VIPPA DCT RAXLU DCT RIMET/N0417F310 T157 KOKEB/N0367F230 T157 KERAX KERAX5A
Aircraft A321/M-SDE2E3FGIJ1LORWXYZ/HB1

Departure

Time 2026-04-15 14:36
Airport Oslo-Gardermoen International Airport (ENGM)

Arrival

Time 2026-04-15 16:14
Airport Frankfurt Main Airport (EDDF)
Time Latitude Longitude Altitude Speed Heading
2026-04-15 14:19 60.19543 11.09578 679 ft 0 kts 196°
2026-04-15 14:29 60.19556 11.09585 679 ft 4 kts 198°
2026-04-15 14:29 60.19582 11.09603 680 ft 4 kts 202°
2026-04-15 14:30 60.19606 11.09626 677 ft 4 kts 210°
2026-04-15 14:30 60.19627 11.09657 676 ft 4 kts 231°
2026-04-15 14:30 60.19636 11.09696 678 ft 2 kts 290°
2026-04-15 14:30 60.19634 11.09707 679 ft 0 kts 291°
2026-04-15 14:32 60.19634 11.09705 678 ft 1 kts 291°
2026-04-15 14:32 60.19648 11.09626 681 ft 10 kts 288°
2026-04-15 14:32 60.19675 11.09445 683 ft 17 kts 286°
2026-04-15 14:32 60.19710 11.09202 681 ft 19 kts 285°
2026-04-15 14:33 60.19749 11.08933 681 ft 22 kts 286°
2026-04-15 14:33 60.19760 11.08686 677 ft 15 kts 230°
2026-04-15 14:33 60.19657 11.08603 678 ft 17 kts 196°
2026-04-15 14:33 60.19534 11.08533 678 ft 19 kts 196°
2026-04-15 14:34 60.19395 11.08453 676 ft 22 kts 196°
2026-04-15 14:34 60.19240 11.08366 674 ft 24 kts 195°
2026-04-15 14:34 60.19070 11.08271 673 ft 26 kts 195°
2026-04-15 14:34 60.18889 11.08169 672 ft 26 kts 197°
2026-04-15 14:35 60.18732 11.08074 670 ft 24 kts 196°
2026-04-15 14:35 60.18585 11.07988 670 ft 15 kts 197°
2026-04-15 14:35 60.18548 11.07805 666 ft 18 kts 284°
2026-04-15 14:35 60.18587 11.07548 664 ft 20 kts 295°
2026-04-15 14:36 60.18707 11.07495 667 ft 20 kts 15°
2026-04-15 14:36 60.18991 11.07659 670 ft 86 kts 15°
2026-04-15 14:36 60.19858 11.08154 720 ft 165 kts 16°
2026-04-15 14:36 60.21030 11.08808 1611 ft 180 kts 17°
2026-04-15 14:37 60.22215 11.09474 2651 ft 174 kts 19°
2026-04-15 14:37 60.23423 11.10175 3103 ft 191 kts 19°
2026-04-15 14:37 60.24770 11.10965 3392 ft 213 kts 19°
2026-04-15 14:37 60.26319 11.11377 3639 ft 241 kts 356°
2026-04-15 14:38 60.28058 11.10880 4028 ft 263 kts 353°
2026-04-15 14:38 60.29834 11.09798 4762 ft 274 kts 328°
2026-04-15 14:38 60.31096 11.06948 5577 ft 278 kts 292°
2026-04-15 14:38 60.31369 11.03146 6432 ft 277 kts 258°
2026-04-15 14:39 60.30836 10.99414 7281 ft 279 kts 252°
2026-04-15 14:39 60.30676 10.95485 8098 ft 287 kts 276°
2026-04-15 14:39 60.31107 10.91508 8941 ft 292 kts 282°
2026-04-15 14:39 60.31573 10.87488 9778 ft 296 kts 277°
2026-04-15 14:40 60.31567 10.83345 10536 ft 297 kts 256°
2026-04-15 14:40 60.30852 10.79472 11302 ft 297 kts 237°
2026-04-15 14:40 60.29492 10.76208 11596 ft 316 kts 217°
2026-04-15 14:40 60.27600 10.73766 11932 ft 332 kts 210°
2026-04-15 14:41 60.25558 10.71282 12084 ft 353 kts 211°
2026-04-15 14:41 60.23404 10.68627 12217 ft 374 kts 211°
2026-04-15 14:41 60.21136 10.65809 12377 ft 391 kts 211°
2026-04-15 14:41 60.18803 10.62893 12807 ft 399 kts 212°
2026-04-15 14:42 60.16339 10.60284 13350 ft 404 kts 202°
2026-04-15 14:42 60.13644 10.58856 13897 ft 409 kts 191°
2026-04-15 14:42 60.10828 10.57857 14394 ft 414 kts 191°
2026-04-15 14:42 60.07975 10.56865 14877 ft 417 kts 191°
2026-04-15 14:43 60.05098 10.55871 15352 ft 422 kts 191°
2026-04-15 14:43 60.02193 10.54874 15827 ft 426 kts 191°
2026-04-15 14:43 59.99257 10.53864 16282 ft 430 kts 191°
2026-04-15 14:43 59.96292 10.52839 16749 ft 434 kts 190°
2026-04-15 14:44 59.93304 10.51802 17226 ft 438 kts 190°
2026-04-15 14:44 59.90287 10.50752 17690 ft 442 kts 190°
2026-04-15 14:44 59.87243 10.49693 18147 ft 446 kts 190°
2026-04-15 14:44 59.84172 10.48629 18595 ft 450 kts 190°
2026-04-15 14:45 59.81075 10.47563 18979 ft 453 kts 190°
2026-04-15 14:45 59.77958 10.46493 19368 ft 457 kts 190°
2026-04-15 14:45 59.74817 10.45417 19765 ft 460 kts 190°
2026-04-15 14:45 59.71648 10.44334 20144 ft 464 kts 190°
2026-04-15 14:46 59.68458 10.43243 20541 ft 467 kts 190°
2026-04-15 14:46 59.65246 10.42150 20934 ft 471 kts 190°
2026-04-15 14:46 59.62004 10.41053 21327 ft 474 kts 190°
2026-04-15 14:46 59.58738 10.39946 21711 ft 477 kts 190°
2026-04-15 14:47 59.55459 10.38834 22094 ft 480 kts 191°
2026-04-15 14:47 59.52151 10.37714 22474 ft 484 kts 191°
2026-04-15 14:47 59.48825 10.36592 22828 ft 487 kts 191°
2026-04-15 14:47 59.45474 10.35461 23144 ft 490 kts 191°
2026-04-15 14:48 59.43244 10.34707 23342 ft 493 kts 191°
2026-04-15 14:48 59.39855 10.33566 23642 ft 496 kts 191°
2026-04-15 14:48 59.36447 10.32423 23928 ft 498 kts 191°
2026-04-15 14:48 59.33025 10.31278 24158 ft 500 kts 191°
2026-04-15 14:49 59.29581 10.30134 24382 ft 503 kts 191°
2026-04-15 14:49 59.26127 10.28989 24595 ft 505 kts 191°
2026-04-15 14:49 59.22655 10.27838 24803 ft 507 kts 191°
2026-04-15 14:49 59.19174 10.26687 24966 ft 509 kts 191°
2026-04-15 14:50 59.15656 10.25751 25098 ft 513 kts 186°
2026-04-15 14:50 59.12094 10.25249 25295 ft 514 kts 185°
2026-04-15 14:50 59.08525 10.24760 25559 ft 514 kts 185°
2026-04-15 14:50 59.04962 10.24278 25796 ft 514 kts 186°
2026-04-15 14:51 59.01393 10.23807 26129 ft 512 kts 185°
2026-04-15 14:51 58.97845 10.23347 26521 ft 510 kts 186°
2026-04-15 14:51 58.94310 10.22896 26807 ft 509 kts 185°
2026-04-15 14:51 58.90764 10.22614 27046 ft 510 kts 183°
2026-04-15 14:52 58.87209 10.22560 27370 ft 509 kts 181°
2026-04-15 14:52 58.83730 10.22691 28512 ft 491 kts 181°
2026-04-15 14:52 58.80334 10.22879 29307 ft 486 kts 181°
2026-04-15 14:52 58.76954 10.23051 29796 ft 485 kts 182°
2026-04-15 14:53 58.73580 10.23173 30227 ft 486 kts 183°
2026-04-15 14:53 58.70203 10.23240 30595 ft 486 kts 183°
2026-04-15 14:53 58.66818 10.23257 30978 ft 486 kts 184°
2026-04-15 14:53 58.63442 10.23257 31382 ft 485 kts 184°
2026-04-15 14:54 58.60048 10.23264 31547 ft 491 kts 184°
2026-04-15 14:54 58.56616 10.23278 31710 ft 496 kts 184°
2026-04-15 14:54 58.53159 10.23310 32007 ft 497 kts 184°
2026-04-15 14:54 58.49694 10.23359 32298 ft 499 kts 184°
2026-04-15 14:55 58.46199 10.23412 32430 ft 505 kts 184°
2026-04-15 14:55 58.42683 10.23462 32642 ft 507 kts 184°
2026-04-15 14:55 58.39154 10.23510 32941 ft 507 kts 184°
2026-04-15 14:55 58.35631 10.23560 33272 ft 506 kts 184°
2026-04-15 14:56 58.32113 10.23608 33609 ft 505 kts 184°
2026-04-15 14:56 58.28602 10.23656 33947 ft 504 kts 184°
2026-04-15 14:56 58.25092 10.23697 34281 ft 504 kts 185°
2026-04-15 14:56 58.21589 10.23731 34569 ft 502 kts 185°
2026-04-15 14:57 58.18102 10.23759 34882 ft 500 kts 184°
2026-04-15 14:57 58.14628 10.23792 35207 ft 498 kts 184°
2026-04-15 14:57 58.11174 10.23832 35538 ft 496 kts 184°
2026-04-15 14:57 58.07727 10.23879 35872 ft 493 kts 184°
2026-04-15 14:58 58.04349 10.23923 36179 ft 491 kts 184°
2026-04-15 14:58 58.00944 10.23961 36513 ft 488 kts 184°
2026-04-15 14:58 57.97553 10.23997 36834 ft 486 kts 184°
2026-04-15 14:58 57.94183 10.24034 37138 ft 484 kts 183°
2026-04-15 14:59 57.90815 10.24073 37245 ft 483 kts 183°
2026-04-15 14:59 57.84110 10.24140 37244 ft 481 kts 184°
2026-04-15 15:00 57.77415 10.24215 37229 ft 481 kts 184°
2026-04-15 15:00 57.70727 10.24287 37246 ft 480 kts 184°
2026-04-15 15:01 57.64054 10.24353 37242 ft 479 kts 184°
2026-04-15 15:01 57.57378 10.24433 37250 ft 480 kts 183°
2026-04-15 15:02 57.50688 10.24507 37192 ft 483 kts 183°
2026-04-15 15:02 57.43938 10.24590 37216 ft 487 kts 184°
2026-04-15 15:03 57.37140 10.24660 37214 ft 490 kts 184°
2026-04-15 15:03 57.30304 10.24726 37223 ft 492 kts 184°
2026-04-15 15:04 57.23451 10.24805 37208 ft 493 kts 183°
2026-04-15 15:04 57.16589 10.24888 37249 ft 493 kts 184°
2026-04-15 15:05 57.09729 10.24961 37260 ft 493 kts 184°
2026-04-15 15:05 57.02877 10.25030 37268 ft 492 kts 184°
2026-04-15 15:06 56.92661 10.25126 37246 ft 491 kts 184°
2026-04-15 15:06 56.85826 10.25200 37255 ft 491 kts 183°
2026-04-15 15:07 56.78999 10.25283 37257 ft 490 kts 183°
2026-04-15 15:07 56.72178 10.25365 37258 ft 490 kts 183°
2026-04-15 15:08 56.65367 10.25430 37242 ft 489 kts 183°
2026-04-15 15:08 56.58558 10.25493 37250 ft 489 kts 183°
2026-04-15 15:09 56.51760 10.25553 37249 ft 489 kts 183°
2026-04-15 15:09 56.44966 10.25625 37254 ft 488 kts 183°
2026-04-15 15:10 56.38180 10.25708 37236 ft 487 kts 183°
2026-04-15 15:10 56.31396 10.25782 37249 ft 487 kts 183°
2026-04-15 15:11 56.24623 10.25840 37247 ft 487 kts 183°
2026-04-15 15:11 56.17848 10.25911 37252 ft 487 kts 183°
2026-04-15 15:12 56.11078 10.25982 37231 ft 486 kts 184°
2026-04-15 15:12 56.04319 10.26058 37251 ft 486 kts 184°
2026-04-15 15:13 55.97560 10.26134 37245 ft 485 kts 184°
2026-04-15 15:13 55.90807 10.26201 37252 ft 485 kts 184°
2026-04-15 15:14 55.87433 10.26233 37484 ft 485 kts 183°
2026-04-15 15:14 55.84112 10.26269 37527 ft 469 kts 182°
2026-04-15 15:14 55.80899 10.26313 37577 ft 456 kts 182°
2026-04-15 15:14 55.77749 10.26350 37576 ft 452 kts 182°
2026-04-15 15:15 55.74605 10.26378 37452 ft 452 kts 183°
2026-04-15 15:15 55.71461 10.26398 37282 ft 452 kts 183°
2026-04-15 15:15 55.65223 10.26438 37212 ft 452 kts 183°
2026-04-15 15:16 55.58935 10.26510 37217 ft 452 kts 182°
2026-04-15 15:16 55.52647 10.26576 37207 ft 452 kts 183°
2026-04-15 15:17 55.46351 10.26635 37215 ft 452 kts 182°
2026-04-15 15:17 55.40016 10.26702 37216 ft 457 kts 182°
2026-04-15 15:18 55.33648 10.26767 37206 ft 458 kts 183°
2026-04-15 15:18 55.27264 10.26835 37213 ft 459 kts 183°
2026-04-15 15:19 55.20864 10.26897 37224 ft 460 kts 183°
2026-04-15 15:19 55.14454 10.26947 37228 ft 461 kts 183°
2026-04-15 15:20 55.08038 10.27004 37216 ft 461 kts 183°
2026-04-15 15:20 55.01612 10.27070 37235 ft 462 kts 183°
2026-04-15 15:21 54.95183 10.27132 37240 ft 462 kts 183°
2026-04-15 15:21 54.88797 10.27196 37239 ft 462 kts 183°
2026-04-15 15:22 54.82366 10.27258 37220 ft 462 kts 183°
2026-04-15 15:22 54.75927 10.27321 37227 ft 463 kts 183°
2026-04-15 15:23 54.69484 10.27377 37233 ft 463 kts 184°
2026-04-15 15:23 54.63040 10.27289 37235 ft 463 kts 185°
2026-04-15 15:24 54.56594 10.27120 37223 ft 463 kts 185°
2026-04-15 15:24 54.50149 10.26973 37220 ft 463 kts 184°
2026-04-15 15:25 54.43697 10.26874 37226 ft 464 kts 184°
2026-04-15 15:25 54.37243 10.26774 37228 ft 464 kts 184°
2026-04-15 15:26 54.30786 10.26665 37210 ft 464 kts 184°
2026-04-15 15:26 54.24327 10.26554 37221 ft 464 kts 184°
2026-04-15 15:27 54.17866 10.26443 37220 ft 464 kts 184°
2026-04-15 15:27 54.11407 10.26334 37221 ft 464 kts 184°
2026-04-15 15:28 54.04943 10.26228 37209 ft 465 kts 184°
2026-04-15 15:28 53.98469 10.26118 37216 ft 466 kts 184°
2026-04-15 15:29 53.92028 10.26018 37222 ft 466 kts 184°
2026-04-15 15:29 53.85542 10.25909 37222 ft 466 kts 184°
2026-04-15 15:30 53.79052 10.25793 37208 ft 466 kts 184°
2026-04-15 15:30 53.72554 10.25688 37219 ft 467 kts 184°
2026-04-15 15:31 53.66053 10.25583 37223 ft 467 kts 184°
2026-04-15 15:31 53.59544 10.25469 37225 ft 468 kts 184°
2026-04-15 15:32 53.53033 10.25358 37209 ft 468 kts 184°
2026-04-15 15:32 53.46517 10.25263 37220 ft 469 kts 184°
2026-04-15 15:33 53.39995 10.25160 37221 ft 469 kts 184°
2026-04-15 15:33 53.33466 10.25047 37224 ft 469 kts 184°
2026-04-15 15:34 53.26939 10.24938 37209 ft 469 kts 184°
2026-04-15 15:34 53.20400 10.24828 37231 ft 470 kts 184°
2026-04-15 15:35 53.13860 10.24729 37221 ft 470 kts 183°
2026-04-15 15:35 53.07322 10.24627 37219 ft 470 kts 183°
2026-04-15 15:36 53.01891 10.24546 37220 ft 470 kts 183°
2026-04-15 15:36 52.95353 10.24442 37234 ft 470 kts 184°
2026-04-15 15:37 52.88819 10.24332 37220 ft 470 kts 184°
2026-04-15 15:37 52.82280 10.24227 37216 ft 470 kts 183°
2026-04-15 15:38 52.75745 10.24126 37219 ft 470 kts 183°
2026-04-15 15:38 52.69209 10.24025 37213 ft 470 kts 183°
2026-04-15 15:39 52.62662 10.23922 37232 ft 470 kts 183°
2026-04-15 15:39 52.56117 10.23811 37209 ft 470 kts 183°
2026-04-15 15:40 52.49571 10.23707 37216 ft 471 kts 183°
2026-04-15 15:40 52.43010 10.23616 37222 ft 472 kts 183°
2026-04-15 15:41 52.36490 10.23507 37215 ft 472 kts 183°
2026-04-15 15:41 52.29926 10.23392 37208 ft 472 kts 183°
2026-04-15 15:42 52.23351 10.23296 37213 ft 472 kts 183°
2026-04-15 15:42 52.16774 10.23199 37221 ft 473 kts 183°
2026-04-15 15:43 52.10188 10.23098 37233 ft 473 kts 183°
2026-04-15 15:43 52.03606 10.23004 37223 ft 473 kts 183°
2026-04-15 15:44 51.97016 10.22902 37223 ft 474 kts 183°
2026-04-15 15:44 51.90421 10.22800 37229 ft 474 kts 183°
2026-04-15 15:45 51.83820 10.22701 37221 ft 474 kts 183°
2026-04-15 15:45 51.77219 10.22603 37224 ft 475 kts 183°
2026-04-15 15:46 51.70609 10.22505 37232 ft 475 kts 182°
2026-04-15 15:46 51.64008 10.22395 37232 ft 474 kts 182°
2026-04-15 15:47 51.57420 10.22295 37223 ft 474 kts 182°
2026-04-15 15:47 51.50836 10.22200 37225 ft 473 kts 182°
2026-04-15 15:48 51.44249 10.22109 37225 ft 473 kts 182°
2026-04-15 15:48 51.37713 10.22021 37227 ft 473 kts 182°
2026-04-15 15:49 51.31129 10.21922 37219 ft 473 kts 182°
2026-04-15 15:49 51.24543 10.21788 37216 ft 473 kts 182°
2026-04-15 15:50 51.17947 10.21631 37217 ft 473 kts 182°
2026-04-15 15:50 51.11360 10.21490 37211 ft 474 kts 182°
2026-04-15 15:51 51.08086 10.21097 37158 ft 471 kts 193°
2026-04-15 15:51 51.05001 10.19513 36811 ft 463 kts 209°
2026-04-15 15:51 51.02277 10.16861 36552 ft 457 kts 217°
2026-04-15 15:51 50.99678 10.14040 36295 ft 448 kts 217°
2026-04-15 15:52 50.97124 10.11260 36044 ft 443 kts 217°
2026-04-15 15:52 50.94587 10.08502 35801 ft 442 kts 217°
2026-04-15 15:52 50.92052 10.05755 35552 ft 441 kts 217°
2026-04-15 15:52 50.89524 10.03021 35304 ft 439 kts 217°
2026-04-15 15:53 50.87007 10.00303 35066 ft 437 kts 217°
2026-04-15 15:53 50.84499 9.97604 34827 ft 435 kts 217°
2026-04-15 15:53 50.82004 9.94922 34586 ft 432 kts 217°
2026-04-15 15:53 50.79522 9.92257 34357 ft 430 kts 217°
2026-04-15 15:54 50.77061 9.89623 33985 ft 425 kts 217°
2026-04-15 15:54 50.74624 9.87022 33499 ft 420 kts 217°
2026-04-15 15:54 50.72212 9.84424 33031 ft 420 kts 217°
2026-04-15 15:54 50.69800 9.81841 32594 ft 417 kts 217°
2026-04-15 15:55 50.67409 9.79291 32136 ft 413 kts 217°
2026-04-15 15:55 50.65035 9.76767 31620 ft 411 kts 216°
2026-04-15 15:55 50.62662 9.74248 30851 ft 414 kts 216°
2026-04-15 15:55 50.60299 9.71736 30046 ft 417 kts 216°
2026-04-15 15:56 50.57906 9.69192 29063 ft 411 kts 216°
2026-04-15 15:56 50.55566 9.66713 28042 ft 399 kts 216°
2026-04-15 15:56 50.53296 9.64317 27065 ft 388 kts 216°
2026-04-15 15:56 50.51088 9.61959 26115 ft 378 kts 219°
2026-04-15 15:57 50.49169 9.59244 25204 ft 367 kts 230°
2026-04-15 15:57 50.47642 9.56100 24303 ft 358 kts 240°
2026-04-15 15:57 50.46525 9.52671 23379 ft 349 kts 250°
2026-04-15 15:57 50.45784 9.49082 22369 ft 343 kts 254°
2026-04-15 15:58 50.45115 9.45512 21385 ft 339 kts 254°
2026-04-15 15:58 50.44445 9.41980 20397 ft 336 kts 254°
2026-04-15 15:58 50.43779 9.38478 19317 ft 335 kts 255°
2026-04-15 15:58 50.43112 9.34976 18234 ft 334 kts 255°
2026-04-15 15:59 50.42447 9.31492 17049 ft 332 kts 254°
2026-04-15 15:59 50.41787 9.28044 15918 ft 329 kts 254°
2026-04-15 15:59 50.41129 9.24616 14819 ft 327 kts 254°
2026-04-15 15:59 50.40414 9.21240 13724 ft 325 kts 252°
2026-04-15 16:00 50.39650 9.17921 12567 ft 322 kts 250°
2026-04-15 16:00 50.38874 9.14649 11443 ft 318 kts 250°
2026-04-15 16:00 50.38106 9.11430 10357 ft 313 kts 249°
2026-04-15 16:00 50.37350 9.08253 9201 ft 309 kts 250°
2026-04-15 16:01 50.36618 9.05162 8512 ft 292 kts 250°
2026-04-15 16:01 50.35940 9.02284 8308 ft 279 kts 251°
2026-04-15 16:01 50.35280 8.99468 8184 ft 274 kts 251°
2026-04-15 16:01 50.34625 8.96668 8185 ft 275 kts 251°
2026-04-15 16:02 50.33967 8.93854 8186 ft 275 kts 250°
2026-04-15 16:02 50.33310 8.91042 8190 ft 275 kts 251°
2026-04-15 16:02 50.32650 8.88222 8189 ft 275 kts 250°
2026-04-15 16:02 50.31899 8.85476 8188 ft 276 kts 239°
2026-04-15 16:03 50.30620 8.83250 8186 ft 279 kts 218°
2026-04-15 16:03 50.28903 8.81925 8184 ft 270 kts 194°
2026-04-15 16:03 50.27106 8.81674 8201 ft 252 kts 175°
2026-04-15 16:03 50.25414 8.82363 8188 ft 252 kts 155°
2026-04-15 16:04 50.23971 8.83898 8182 ft 252 kts 135°
2026-04-15 16:04 50.22942 8.86087 8165 ft 251 kts 116°
2026-04-15 16:04 50.22430 8.88667 7884 ft 248 kts 95°
2026-04-15 16:04 50.22506 8.91309 7559 ft 242 kts 76°
2026-04-15 16:05 50.23038 8.93779 7235 ft 239 kts 68°
2026-04-15 16:05 50.23612 8.96205 6910 ft 237 kts 68°
2026-04-15 16:05 50.24173 8.98607 6590 ft 234 kts 68°
2026-04-15 16:05 50.24616 9.01046 6256 ft 235 kts 84°
2026-04-15 16:06 50.24256 9.03517 6187 ft 240 kts 117°
2026-04-15 16:06 50.23082 9.05375 6193 ft 246 kts 149°
2026-04-15 16:06 50.21440 9.06072 6059 ft 249 kts 179°
2026-04-15 16:06 50.19788 9.05425 5665 ft 246 kts 210°
2026-04-15 16:07 50.18453 9.03804 5287 ft 243 kts 223°
2026-04-15 16:07 50.17212 9.02036 5029 ft 239 kts 224°
2026-04-15 16:07 50.15121 8.98050 5029 ft 239 kts 250°
2026-04-15 16:08 50.14561 8.95642 5027 ft 239 kts 252°
2026-04-15 16:08 50.14002 8.93197 5025 ft 239 kts 252°
2026-04-15 16:08 50.13433 8.90762 5024 ft 239 kts 252°
2026-04-15 16:08 50.12861 8.88330 5024 ft 239 kts 252°
2026-04-15 16:09 50.12289 8.85894 4965 ft 240 kts 252°
2026-04-15 16:09 50.11723 8.83492 4676 ft 233 kts 251°
2026-04-15 16:09 50.11173 8.81161 4359 ft 225 kts 252°
2026-04-15 16:09 50.10656 8.78972 4030 ft 205 kts 252°
2026-04-15 16:10 50.10180 8.76952 3757 ft 195 kts 252°
2026-04-15 16:10 50.09713 8.74974 3469 ft 194 kts 252°
2026-04-15 16:10 50.09247 8.73004 3186 ft 193 kts 252°
2026-04-15 16:10 50.08784 8.71047 2907 ft 192 kts 251°
2026-04-15 16:11 50.08328 8.69124 2631 ft 184 kts 252°
2026-04-15 16:11 50.07900 8.67320 2361 ft 172 kts 251°
2026-04-15 16:11 50.07497 8.65623 2131 ft 163 kts 250°
2026-04-15 16:11 50.07120 8.64037 1897 ft 151 kts 251°
2026-04-15 16:12 50.06761 8.62523 1681 ft 146 kts 251°
2026-04-15 16:12 50.06409 8.61045 1463 ft 145 kts 251°
2026-04-15 16:12 50.06058 8.59570 1268 ft 145 kts 251°
2026-04-15 16:12 50.05704 8.58102 1031 ft 144 kts 250°
2026-04-15 16:13 50.05350 8.56643 830 ft 144 kts 252°
2026-04-15 16:13 50.05010 8.55174 653 ft 144 kts 251°
2026-04-15 16:13 50.04661 8.53713 463 ft 142 kts 251°
2026-04-15 16:13 50.04335 8.52335 345 ft 121 kts 250°
2026-04-15 16:14 50.04170 8.51680 334 ft 28 kts 232°
2026-04-15 16:14 50.04052 8.51472 331 ft 26 kts 223°
2026-04-15 16:14 50.03985 8.51382 331 ft 10 kts 218°
2026-04-15 16:14 50.03979 8.51374 331 ft 0 kts 218°
2026-04-15 16:15 50.03973 8.51369 331 ft 5 kts 208°
2026-04-15 16:15 50.03915 8.51427 332 ft 20 kts 103°
2026-04-15 16:15 50.03963 8.51683 335 ft 26 kts 69°
2026-04-15 16:15 50.04027 8.51952 336 ft 27 kts 70°
2026-04-15 16:16 50.04092 8.52227 349 ft 27 kts 70°
2026-04-15 16:16 50.04157 8.52501 354 ft 27 kts 70°
2026-04-15 16:16 50.04224 8.52775 355 ft 27 kts 69°
2026-04-15 16:16 50.04290 8.53048 362 ft 26 kts 70°
2026-04-15 16:17 50.04350 8.53298 367 ft 23 kts 69°
2026-04-15 16:17 50.04394 8.53517 375 ft 20 kts 80°
2026-04-15 16:17 50.04410 8.53744 376 ft 22 kts 84°
2026-04-15 16:17 50.04427 8.53997 375 ft 25 kts 84°
2026-04-15 16:18 50.04446 8.54272 375 ft 26 kts 84°
2026-04-15 16:18 50.04444 8.54517 367 ft 22 kts 103°
2026-04-15 16:18 50.04362 8.54720 360 ft 20 kts 140°
2026-04-15 16:18 50.04238 8.54814 359 ft 18 kts 160°
2026-04-15 16:19 50.04112 8.54886 353 ft 18 kts 159°
2026-04-15 16:19 50.04076 8.54908 356 ft 3 kts 159°
2026-04-15 16:19 50.04044 8.54932 357 ft 11 kts 141°
2026-04-15 16:19 50.04039 8.55107 358 ft 20 kts 71°
2026-04-15 16:20 50.04091 8.55320 355 ft 23 kts 69°
2026-04-15 16:20 50.04151 8.55567 353 ft 26 kts 69°
2026-04-15 16:20 50.04212 8.55829 360 ft 24 kts 71°
2026-04-15 16:20 50.04308 8.55946 355 ft 19 kts 348°
2026-04-15 16:21 50.04442 8.55920 358 ft 20 kts 11°
2026-04-15 16:21 50.04562 8.56018 356 ft 19 kts 70°
2026-04-15 16:21 50.04607 8.56191 361 ft 16 kts 69°
2026-04-15 16:21 50.04645 8.56345 363 ft 14 kts 69°
2026-04-15 16:22 50.04678 8.56482 360 ft 13 kts 68°
2026-04-15 16:22 50.04722 8.56589 357 ft 11 kts 54°
2026-04-15 16:22 50.04751 8.56675 361 ft 7 kts 95°
2026-04-15 16:22 50.04739 8.56726 359 ft 2 kts 113°
2026-04-15 16:23 50.04736 8.56736 361 ft 0 kts 113°